Weather History for Ogden, UT

Change the Weather History Date:

Sunday, July 28, 2013

  Actual Average Record
Temperature  
Mean Temperature 74 °F -  
Max Temperature 87 °F 92 °F 103 °F (1934)
Min Temperature 63 °F 61 °F 50 °F (1948)
Cooling Degree Days 10    
Growing Degree Days 24 (Base 50)    
Moisture  
Dew Point 51 °F    
Average Humidity 48    
Maximum Humidity 75    
Minimum Humidity 24    
Precipitation  
Precipitation 0.00 in - - ()
Sea Level Pressure  
Sea Level Pressure 29.81 in    
Wind  
Wind Speed 8 mph (South)    
Max Wind Speed 17 mph    
Max Gust Speed 25 mph    
Visibility 10 miles    
Events      
Averages and records for this station are not official NWS values.
T = Trace of Precipitation, MM = Missing Value Source: NWS Daily Summary

Daily Weather History Graph

Daily Weather History Graph

Search for Another Location

Airport:

Trip Planner

Search our weather history database for the weather conditions in past years. The results will help you decide how hot, cold, wet, or windy it might be!

Date:

Astronomy

Jul. 28, 2013 Rise Set
Actual Time 6:20 AM MDT 8:48 PM MDT
Civil Twilight 5:48 AM MDT 9:19 PM MDT
Nautical Twilight 5:09 AM MDT 9:58 PM MDT
Astronomical Twilight 4:25 AM MDT 10:42 PM MDT
Moon No Moon Rise 1:10 PM MDT
Length of Visible Light 15h 31m
Length of Day
14h 28m
Waning Gibbous, 60% of the Moon is Illuminated
Jul 28
Waning Gibbous
Jul 29
Last Quarter
Aug 6
New
Aug 14
First Quarter
Aug 20
Full

Hourly Weather History & Observations

Time (MDT) Temp. Heat Index Dew Point Humidity Pressure Visibility Wind Dir Wind Speed Gust Speed Precip Events Conditions
12:53 AM 64.9 °F - 55.9 °F 73% 29.86 in 10.0 mi SSE 4.6 mph - N/A   Clear
1:53 AM 66.0 °F - 55.9 °F 70% 29.84 in 10.0 mi South 8.1 mph - N/A   Clear
2:53 AM 64.0 °F - 55.0 °F 73% 29.83 in 10.0 mi South 6.9 mph - N/A   Clear
3:53 AM 63.0 °F - 55.0 °F 75% 29.83 in 10.0 mi SSE 6.9 mph - N/A   Clear
4:53 AM 64.0 °F - 54.0 °F 70% 29.83 in 10.0 mi South 9.2 mph - N/A   Clear
5:53 AM 64.0 °F - 54.0 °F 70% 29.83 in 10.0 mi South 5.8 mph - N/A   Partly Cloudy
6:53 AM 63.0 °F - 54.0 °F 72% 29.84 in 10.0 mi South 8.1 mph - N/A   Clear
7:53 AM 66.0 °F - 54.0 °F 65% 29.85 in 10.0 mi SSE 8.1 mph - N/A   Clear
8:53 AM 70.0 °F - 55.0 °F 59% 29.85 in 10.0 mi SSE 9.2 mph - N/A   Clear
11:53 AM 80.1 °F 80.0 °F 54.0 °F 40% 29.83 in 10.0 mi South 4.6 mph - N/A   Scattered Clouds
12:53 PM 81.0 °F 80.7 °F 55.0 °F 41% 29.82 in 10.0 mi West 8.1 mph - N/A   Partly Cloudy
1:53 PM 82.9 °F - 52.0 °F 34% 29.80 in 10.0 mi South 6.9 mph - N/A   Clear
2:53 PM 81.0 °F - 51.1 °F 35% 29.78 in 10.0 mi South 6.9 mph - N/A   Clear
3:53 PM 84.9 °F - 50.0 °F 30% 29.75 in 10.0 mi Variable 4.6 mph - N/A   Clear
4:53 PM 86.0 °F - 45.0 °F 24% 29.73 in 10.0 mi WNW 5.8 mph - N/A   Clear
5:21 PM 84.2 °F - 46.4 °F 27% 29.91 in 10.0 mi NE 13.8 mph - N/A   Clear
5:53 PM 84.9 °F - 46.9 °F 27% 29.73 in 10.0 mi NNE 5.8 mph - N/A   Clear
6:53 PM 80.1 °F - 48.9 °F 34% 29.76 in 10.0 mi NW 10.4 mph - N/A   Clear
7:53 PM 75.0 °F - 46.9 °F 37% 29.79 in 10.0 mi NNE 17.3 mph 25.3 mph N/A   Scattered Clouds
8:53 PM 75.0 °F - 46.0 °F 36% 29.78 in 10.0 mi SSE 8.1 mph - N/A   Partly Cloudy
9:32 PM 75.2 °F - 46.4 °F 36% 29.93 in 10.0 mi SE 15.0 mph - N/A   Clear
9:53 PM 75.9 °F - 46.0 °F 35% 29.75 in 10.0 mi SSE 12.7 mph - N/A   Clear
10:53 PM 73.0 °F - 50.0 °F 44% 29.78 in 10.0 mi SSW 15.0 mph - N/A   Clear